Weather in Kamennoye

Russia / Kurgan Oblast     55°15′29″N   63°12′28″E
temp.,
°C
wind,
m/s
gust,
m/s
humid.,
%
clouds,
%
prec.,
mm/h
press.,
hPa
HPBL,
m
2 july, sat
sat223:00+12n2277100 0.1 101416
02:00+11wnw228697 0.0 101321
05:00+10nw3484100 0.0 101377
08:00+14nw3574100 0.0 1013297
11:00+18nnw356384 0.0 10121075
14:00+19nnw4558100 0.3 10121787
17:00+18nnw4463100 0.6 10121214
20:00+16n11775 0.1 101216
3 july, sun
sun323:00+12nw228322 0.1 101211
02:00+11wnw228453 0.0 101210
05:00+11wsw11825 0.0 101110
08:00+16sw34716 0.0 1011282
11:00+20wsw225511 0.0 1010833
14:00+22s22486 0.0 10091697
17:00+22ssw114947 0.0 10071685
20:00+18ne1172100 0.3 100612
4 july, mon
mon423:00+15nne228898 2.5 100625
02:00+13nne379595 1.9 1005176
05:00+12nne61098100 2.6 1004358
08:00+12nne71197100 0.3 1004510
11:00+12nne71196100 0.4 1005612
14:00+13nne81391100 0.0 1005722
17:00+14ne91382100 0.1 10061015
20:00+12nne81582100 0.1 1006895
5 july, tue
tue523:00+12nne71376100 0.1 1007885
02:00+11nne61277100 0.4 1007603
05:00+9n61280100 0.5 1008446
08:00+11n61282100 0.0 1009514
11:00+16nne8106632 0.0 10101233
14:00+17nne686399 0.1 10101588
17:00+15n6971100 0.4 1012783
20:00+14n37769 0.1 1012228
6 july, wed
wed623:00+13nnw3467100 0.1 101374
02:00+13nnw3366100 0.0 101362
05:00+12nnw3670100 0.0 1014123
08:00+14n35697 0.0 1014293
11:00+19n345618 0.0 10141243
14:00+19n2355100 0.0 10141708
17:00+19n446578 0.1 10141108
20:00+17n2275100 0.0 101416